Location: Ocean City
(38.3360°N, 75.0850°W)
Time: 18:36:41
(UTC-04:00)

MOZHAYETS 4 - Pass Details

Date: 26 May 2019
Orbit: 661 x 681 km, 98.0° (Epoch: 17 June)

Event Time Altitude Azimuth Distance (km) Brightness Sun altitude
Exits shadow 01:55:40 12° 95° (E) 1,975 10.2 -29.0°
Maximum altitude 01:57:48 16° 65° (ENE) 1,746 10.3 -28.9°
Drops below altitude 10° 02:00:32 10° 28° (NNE) 2,107 11.2 -28.8°
Sets 02:03:32 0° 7° (N) 3,022 12.3 -28.6°
